Wind_Speed
35 33 32 32 30 27 27 28 30 32 36 37 37 38 36 40 43 38 37 36 45 41 42 39 39 37 37 36 35 37 38 39 39 39 40 40 39 40 39 38 38 41 40 38
36 34 35 33 32 30 27 27 28 30 33 36 39 39 39 39 41 44 40 39 36 37 41 47 50 44 41 41 41 40 40 40 40 41 43 43 42 43 42 41 42 41 41 42
38 35 35 34 33 32 31 28 27 27 29 33 36 39 40 40 42 44 44 47 47 44 38 40 45 48 49 47 45 44 43 43 42 42 44 45 44 44 42 42 43 44 45 45
40 39 39 37 35 33 33 34 33 30 29 30 33 37 38 41 44 45 46 45 43 44 41 41 38 39 47 51 47 46 46 47 46 44 44 44 45 47 45 43 51 52 48 43
41 39 38 36 35 35 36 34 35 34 33 32 31 35 32 38 40 42 42 44 47 47 47 40 39 39 41 47 49 48 48 47 46 43 45 45 47 49 46 51 54 49 43 43
45 42 42 39 38 38 38 38 37 37 36 36 34 32 32 30 35 39 39 42 44 47 48 44 42 41 40 42 48 49 48 48 49 50 48 49 53 53 51 52 50 41 44 44
47 45 45 43 42 42 41 41 40 40 39 36 33 32 30 29 31 35 38 40 41 44 51 48 48 46 42 44 47 50 51 52 52 50 51 55 53 52 58 48 46 46 45 34
46 47 46 45 44 44 42 43 40 41 41 40 39 33 31 30 30 35 37 38 40 44 43 46 47 45 47 47 49 50 53 54 56 58 53 55 55 57 59 48 45 40 31 32
49 49 50 47 46 46 44 45 38 41 41 41 40 37 34 35 32 32 35 38 41 40 43 44 45 44 43 44 47 51 55 55 61 59 56 51 48 46 48 44 37 37 38 37
53 52 52 50 48 48 47 45 44 43 43 42 41 38 35 35 34 33 33 35 39 42 43 45 45 45 42 41 41 41 45 54 57 49 51 46 51 42 37 37 36 33 32 33
55 56 56 55 51 50 49 47 46 44 42 43 43 38 35 35 36 33 33 34 35 39 41 42 43 44 45 43 37 37 40 40 43 48 47 42 37 37 37 33 30 30 31 31
58 59 59 57 56 52 52 49 49 48 48 45 44 38 37 31 29 25 28 31 33 35 37 39 40 40 40 37 34 32 33 34 31 31 34 38 39 33 27 28 30 29 32 36
59 61 61 63 60 55 55 54 53 51 50 49 47 42 40 33 30 30 30 32 35 35 35 35 37 37 38 35 33 31 29 31 32 34 29 25 25 25 27 30 32 35 38 39
64 64 64 64 57 59 59 56 55 55 57 46 49 45 43 29 29 34 37 36 36 37 37 36 35 35 35 34 32 32 33 34 34 28 26 26 27 30 31 34 38 38 40 42
65 67 65 64 62 63 64 62 60 61 54 56 45 49 42 33 35 40 42 40 37 39 39 39 39 38 37 36 36 37 36 34 29 28 29 31 31 34 37 35 38 41 42 46
52 69 68 67 65 67 66 67 66 62 56 59 54 56 45 41 34 38 38 37 33 35 36 39 40 39 37 35 35 34 32 31 31 32 34 34 37 35 36 39 41 41 46 46
47 48 60 75 71 69 74 69 64 65 62 57 60 49 48 46 38 38 37 37 34 35 38 39 38 36 35 34 35 34 33 33 34 35 36 34 35 37 40 41 41 44 46 48
60 51 47 51 55 65 73 65 66 66 63 60 57 52 55 51 45 44 46 41 37 38 38 38 36 36 36 38 37 37 37 37 36 35 35 36 39 41 41 41 43 45 48 52
72 69 63 55 54 53 60 67 69 71 69 63 61 56 55 53 53 46 44 44 43 40 36 33 32 35 38 39 40 41 39 35 36 37 38 40 42 41 41 43 45 48 52 54
77 76 77 75 68 62 57 55 59 65 77 63 62 56 57 61 64 47 44 46 47 46 42 37 37 36 35 36 36 36 38 39 39 41 41 44 42 41 42 44 48 52 53 53
81 81 77 77 76 75 54 57 54 59 50 53 62 62 66 69 59 50 49 46 47 48 49 48 47 44 41 39 40 41 42 44 45 42 45 45 42 40 44 48 51 52 53 53
74 67 67 68 76 82 58 65 71 55 48 46 42 38 47 53 56 55 54 51 49 50 51 51 51 49 47 45 43 45 50 51 50 50 45 41 39 43 47 50 52 52 52 52
58 73 65 61 64 72 78 78 67 62 55 51 51 46 47 48 44 47 50 53 53 51 57 57 56 53 50 46 50 49 44 45 44 45 40 38 43 47 49 51 51 51 51 51
44 55 77 80 71 65 80 68 79 72 58 55 53 52 47 44 41 42 42 45 45 45 48 47 51 55 54 48 48 51 48 44 44 40 38 42 46 49 50 51 51 51 51 49
45 49 56 77 82 68 76 72 69 77 71 62 58 54 49 48 47 44 43 44 38 43 42 43 45 43 43 43 44 48 51 50 40 38 41 45 48 50 50 50 51 51 48 43
48 49 50 57 73 72 70 65 60 56 67 71 59 57 58 52 49 47 45 45 46 41 43 42 37 38 42 46 48 49 43 37 37 40 44 47 49 49 50 51 50 47 42 37
Wind_Direction
216 220 224 226 229 233 231 235 235 234 234 234 232 234 237 235 233 238 236 237 237 237 241 249 252 251 252 254 255 255 255 257 259 263 266 268 269 274 282 287 294 298 294 293
218 221 225 229 231 233 236 238 240 240 241 241 240 239 237 238 236 234 235 236 238 239 243 247 250 253 255 256 255 255 257 259 261 263 266 269 270 273 279 283 289 293 294 292
220 222 225 228 232 234 237 239 241 244 246 246 246 243 239 239 242 241 242 245 248 254 246 246 243 251 256 256 256 257 257 259 260 261 264 266 267 273 278 280 287 291 293 291
221 222 226 227 230 233 236 238 244 246 248 251 253 250 245 246 246 248 249 244 248 245 247 247 248 255 258 253 253 255 258 260 260 260 262 264 267 272 275 280 288 289 292 292
226 225 229 229 234 235 238 241 243 246 250 252 256 260 252 250 251 256 256 253 253 250 246 249 251 255 259 256 251 256 258 260 260 261 266 268 271 274 277 282 288 288 288 290
226 225 227 229 233 235 238 241 244 247 249 255 258 263 266 262 258 255 257 251 251 250 248 248 253 253 255 258 256 255 255 257 259 263 265 270 273 273 277 282 283 281 286 290
229 228 230 228 230 234 238 242 245 248 248 252 257 263 268 271 262 257 254 254 255 258 254 254 253 252 256 259 259 255 255 258 259 256 263 270 270 273 276 278 276 278 288 295
230 231 233 235 235 236 238 241 244 249 249 249 249 255 262 266 267 262 258 257 259 257 254 253 253 254 258 258 259 258 257 257 256 263 262 264 267 271 276 273 276 286 288 283
233 233 231 233 236 238 241 245 252 254 254 255 253 251 255 262 264 268 266 259 258 260 256 257 258 260 261 260 259 257 255 254 258 266 272 274 275 271 267 273 281 281 279 285
235 235 235 234 237 239 240 241 246 248 250 251 252 252 255 262 264 265 266 263 259 259 257 256 259 261 260 261 257 258 267 269 269 275 272 267 274 275 277 281 284 286 289 292
235 237 237 236 236 240 242 243 245 251 251 254 253 253 254 259 263 264 264 265 263 260 261 261 260 262 263 258 258 255 253 257 259 265 273 274 273 277 278 284 283 287 290 295
238 238 238 239 238 239 241 242 243 244 246 247 250 240 254 257 257 263 262 264 264 261 260 259 258 258 261 263 263 260 260 263 267 270 270 268 275 277 278 285 291 295 294 292
239 240 241 240 239 239 242 243 243 244 246 244 247 246 248 260 263 264 261 260 261 260 258 258 257 255 254 254 256 256 256 260 262 263 266 271 277 284 288 286 287 287 290 292
240 239 240 241 242 248 244 247 249 250 247 248 248 251 256 260 257 256 255 254 255 257 255 254 254 255 252 253 249 250 256 257 260 263 268 272 278 280 280 281 284 287 290 293
245 243 244 242 242 245 245 242 244 246 246 250 244 252 253 254 247 248 252 254 254 252 253 253 252 249 249 252 252 253 256 257 258 262 265 273 274 276 280 281 284 288 292 295
241 245 246 242 244 247 246 246 244 245 245 247 243 247 250 249 251 254 257 258 259 257 253 253 251 252 251 252 251 253 253 255 258 260 266 269 273 274 277 282 287 289 294 296
239 241 246 249 247 249 249 244 250 248 244 247 245 246 254 254 247 250 249 251 252 252 252 249 251 253 252 251 250 251 254 259 261 263 265 269 271 275 280 285 287 293 295 297
244 244 245 246 245 248 249 245 250 251 248 247 248 243 249 252 248 244 250 257 263 261 262 259 253 252 252 250 250 253 258 261 261 263 267 271 274 278 280 285 290 293 296 299
244 246 247 246 244 252 247 248 251 251 247 246 246 246 251 256 254 247 251 257 258 257 260 264 263 258 256 256 256 256 259 259 262 265 269 272 276 277 282 287 290 295 298 300
248 250 251 248 247 247 251 249 249 252 251 248 252 248 251 255 255 252 251 248 250 252 258 257 255 255 253 253 254 253 256 260 264 267 269 275 275 279 284 288 292 295 298 300
249 250 251 253 254 249 243 249 250 249 262 253 251 249 250 252 254 254 250 244 245 248 250 252 253 253 253 253 257 258 262 266 267 266 271 274 274 281 285 289 293 296 297 299
249 249 252 239 250 250 245 247 248 262 253 252 256 245 246 250 251 249 251 250 245 246 248 251 254 255 255 256 256 260 263 266 265 267 269 270 277 282 286 291 293 294 296 298
255 243 235 246 254 255 240 245 248 249 246 245 252 256 252 248 252 253 255 254 250 246 247 248 250 253 255 257 261 264 267 265 262 262 265 274 279 284 288 290 292 295 297 297
273 256 242 236 238 246 248 247 244 246 247 248 250 250 252 251 252 252 255 252 248 252 254 256 253 249 251 251 254 262 266 258 258 266 272 278 283 287 288 291 293 294 294 294
282 272 258 241 238 235 240 247 246 241 241 246 248 248 251 252 253 252 252 252 255 255 250 246 246 247 250 253 254 257 257 263 264 271 277 281 284 287 290 291 292 292 292 288
291 285 267 256 240 232 236 243 246 243 241 241 246 248 249 251 254 253 251 256 254 247 238 236 245 251 248 248 253 256 257 262 270 276 280 283 286 288 290 290 290 290 286 281
Height
5733 5737 5741 5745 5749 5752 5754 5756 5759 5760 5764 5766 5770 5773 5776 5779 5784 5786 5787 5790 5792 5793 5796 5800 5802 5804 5806 5808 5809 5810 5811 5811 5812 5813 5813 5812 5810 5809 5808 5806 5804 5803 5801 5798
5731 5733 5736 5740 5745 5748 5750 5752 5754 5757 5759 5761 5764 5768 5771 5773 5777 5781 5783 5785 5787 5788 5790 5792 5795 5797 5799 5800 5802 5803 5803 5804 5804 5805 5805 5804 5803 5801 5801 5799 5798 5795 5793 5792
5725 5729 5732 5736 5740 5743 5745 5746 5749 5751 5753 5755 5757 5760 5764 5769 5771 5774 5777 5780 5781 5782 5784 5784 5787 5789 5790 5792 5794 5795 5796 5796 5796 5797 5797 5796 5794 5794 5792 5791 5790 5788 5786 5784
5719 5724 5727 5731 5735 5737 5739 5741 5743 5745 5747 5749 5750 5752 5758 5760 5763 5764 5767 5772 5774 5775 5777 5778 5778 5780 5781 5783 5785 5787 5788 5788 5788 5789 5788 5788 5787 5786 5784 5783 5782 5780 5779 5776
5716 5719 5722 5726 5728 5732 5733 5735 5738 5739 5740 5743 5745 5745 5753 5754 5757 5759 5762 5765 5767 5768 5770 5770 5771 5771 5772 5774 5776 5778 5779 5780 5780 5780 5780 5781 5780 5778 5776 5775 5774 5772 5770 5768
5707 5712 5715 5720 5722 5724 5727 5729 5732 5733 5734 5737 5738 5741 5745 5748 5749 5750 5751 5755 5758 5760 5762 5762 5763 5764 5763 5765 5767 5769 5770 5771 5771 5771 5772 5772 5771 5770 5768 5767 5766 5764 5761 5760
5701 5706 5709 5711 5714 5717 5721 5723 5724 5726 5727 5731 5732 5734 5740 5740 5741 5743 5745 5748 5749 5751 5754 5754 5754 5756 5755 5757 5758 5759 5761 5762 5762 5762 5762 5762 5762 5761 5760 5758 5756 5754 5754 5753
5694 5700 5703 5707 5709 5712 5714 5716 5719 5716 5719 5722 5723 5728 5732 5733 5734 5734 5736 5738 5740 5743 5745 5746 5746 5747 5747 5748 5748 5749 5750 5751 5752 5752 5751 5751 5751 5751 5751 5746 5748 5747 5747 5745
5686 5689 5693 5697 5700 5703 5707 5708 5713 5710 5713 5714 5718 5723 5724 5724 5725 5726 5728 5730 5732 5734 5736 5738 5738 5738 5737 5738 5738 5740 5740 5741 5741 5741 5742 5741 5741 5740 5739 5740 5740 5739 5737 5736
5675 5679 5682 5685 5690 5693 5695 5700 5701 5702 5705 5706 5710 5713 5716 5715 5717 5719 5720 5721 5722 5724 5726 5728 5729 5729 5729 5730 5729 5730 5730 5732 5734 5734 5733 5732 5732 5732 5732 5732 5731 5730 5729 5728
5666 5668 5671 5675 5681 5683 5687 5691 5693 5695 5699 5698 5701 5707 5709 5709 5707 5709 5711 5712 5714 5716 5717 5717 5718 5720 5721 5721 5721 5721 5722 5722 5724 5725 5724 5723 5724 5725 5725 5724 5724 5723 5721 5720
5655 5653 5658 5665 5667 5672 5675 5681 5682 5683 5688 5689 5691 5701 5699 5701 5701 5702 5704 5705 5706 5706 5707 5708 5710 5710 5711 5711 5711 5712 5713 5714 5715 5716 5717 5717 5717 5716 5716 5716 5716 5715 5714 5713
5642 5643 5646 5648 5657 5665 5667 5669 5671 5674 5674 5680 5684 5695 5694 5696 5698 5697 5697 5698 5698 5698 5700 5701 5701 5702 5703 5704 5705 5705 5706 5708 5708 5709 5709 5709 5709 5709 5709 5709 5709 5708 5706 5704
5623 5631 5632 5641 5659 5651 5653 5659 5662 5663 5662 5680 5675 5685 5686 5690 5690 5689 5688 5689 5690 5691 5693 5694 5695 5696 5696 5696 5698 5699 5700 5701 5701 5701 5702 5702 5703 5703 5703 5702 5701 5699 5698 5695
5612 5619 5627 5634 5635 5634 5638 5642 5646 5645 5660 5655 5677 5668 5678 5680 5678 5678 5679 5680 5683 5684 5684 5685 5686 5686 5688 5690 5691 5692 5692 5693 5693 5694 5695 5695 5696 5696 5695 5694 5693 5691 5688 5685
5604 5610 5610 5615 5622 5622 5623 5624 5629 5641 5653 5645 5659 5655 5672 5668 5671 5673 5673 5673 5674 5675 5676 5676 5676 5678 5681 5682 5682 5684 5685 5685 5686 5686 5687 5687 5688 5687 5687 5686 5683 5681 5678 5674
5595 5597 5598 5601 5610 5605 5593 5620 5632 5631 5632 5641 5640 5659 5657 5658 5664 5664 5662 5663 5664 5665 5665 5665 5668 5670 5672 5674 5675 5676 5677 5678 5678 5679 5679 5679 5679 5679 5678 5676 5673 5670 5667 5663
5582 5586 5586 5587 5587 5575 5596 5617 5610 5615 5624 5629 5634 5643 5640 5646 5650 5651 5654 5657 5658 5658 5658 5659 5661 5663 5665 5666 5667 5668 5669 5670 5671 5670 5670 5670 5670 5669 5668 5666 5663 5660 5656 5651
5568 5570 5570 5571 5569 5572 5582 5601 5607 5600 5608 5615 5620 5633 5632 5633 5633 5641 5647 5648 5648 5648 5649 5651 5653 5654 5656 5658 5659 5660 5661 5661 5661 5662 5662 5661 5660 5659 5657 5654 5652 5649 5645 5640
5550 5550 5551 5555 5554 5555 5582 5591 5585 5582 5577 5615 5615 5620 5622 5618 5612 5636 5635 5636 5635 5638 5641 5642 5643 5644 5646 5648 5649 5650 5651 5652 5653 5652 5652 5651 5649 5647 5645 5643 5640 5637 5633 5628
5527 5530 5531 5536 5535 5542 5579 5573 5572 5560 5598 5601 5599 5603 5599 5596 5612 5624 5616 5622 5624 5627 5629 5629 5630 5634 5636 5638 5640 5641 5641 5642 5641 5641 5640 5639 5638 5636 5634 5632 5629 5625 5621 5617
5509 5514 5517 5524 5520 5523 5574 5556 5550 5577 5579 5579 5578 5583 5585 5590 5593 5597 5603 5608 5611 5614 5617 5620 5620 5623 5626 5627 5629 5630 5630 5630 5630 5629 5629 5628 5627 5626 5623 5620 5617 5613 5609 5605
5485 5491 5499 5504 5506 5522 5538 5533 5545 5551 5560 5564 5565 5567 5571 5578 5581 5585 5588 5592 5596 5600 5603 5606 5608 5611 5614 5616 5618 5618 5617 5618 5617 5618 5617 5617 5616 5614 5611 5608 5605 5601 5596 5592
5477 5475 5472 5481 5491 5503 5510 5516 5529 5535 5543 5546 5549 5552 5557 5563 5568 5572 5575 5579 5582 5586 5589 5592 5594 5598 5600 5602 5605 5606 5606 5606 5606 5606 5606 5605 5604 5602 5599 5596 5592 5588 5584 5580
5462 5457 5455 5455 5468 5484 5491 5496 5505 5513 5523 5528 5533 5538 5542 5549 5555 5559 5563 5567 5570 5574 5577 5580 5583 5584 5586 5589 5591 5594 5595 5594 5595 5595 5595 5594 5592 5590 5587 5583 5580 5576 5572 5569
5447 5441 5440 5441 5453 5463 5473 5478 5486 5494 5501 5509 5515 5522 5529 5536 5542 5546 5550 5554 5558 5562 5564 5567 5570 5573 5575 5578 5580 5581 5582 5583 5584 5584 5583 5581 5580 5577 5574 5571 5567 5564 5561 5558